NOAA NWS Hourly Roundups by Site

Regional Weather Roundup for Upton, NY

To Select Another Site Choose from List

Select Site:  

262
ASUS41 KOKX 240310
RWROKX

Regional Weather Roundup
National Weather Service New York NY
1100 PM EDT THU MAY 23 2024

Note: "FAIR" indicates few or no clouds below 12,000 feet with no
significant weather and/or obstructions to visibility.

NYZ071-072-176-178-NJZ106-104-240400-
New York City Metro Area

CITY           SKY/WX    TMP DP  RH WIND       PRES   REMARKS
Central Park   PTCLDY    74  61  63 SW3       29.89S
World Trd Ctr  NOT AVBL
Bronx Lehman C   N/A     73  63  68 W3          N/A
LaGuardia Arpt MOCLDY    75  60  59 SW9       29.85S
Queens College   N/A     73  63  68 SW7         N/A
Kennedy Intl   MOCLDY    66  62  87 S7        29.87S
Breezy Point     N/A    N/A N/A N/A SW3         N/A
Brooklyn Coll    N/A     72  63  73 SW3         N/A
Staten Island    N/A     72  61  68 SW5         N/A
Newark/Liberty MOCLDY    75  62  64 SW9       29.86S
Teterboro      PTCLDY    74  64  71 W8        29.84S
$$

NYZ177-179-078>081-240400-
Long Island New York

CITY           SKY/WX    TMP DP  RH WIND       PRES   REMARKS
Jones Beach      N/A     64 N/A N/A SW2         N/A
Wantagh          N/A     66  61  82 SW5         N/A
Hempstead      NOT AVBL
Matinecock Pt    N/A     72 N/A N/A S8          N/A
Farmingdale    NOT AVBL
MacArthur/ISP  PTCLDY    66  63  90 SW7       29.86S
Stony Brook      N/A     68  64  88 SW3         N/A
Shirley        CLEAR     67  62  84 SW5       29.87S
Mt Sinai Harb    N/A    N/A N/A N/A SW7         N/A
Westhampton    CLEAR     62  61  96 CALM      29.87F
East Hampton   CLEAR     63  60  92 CALM      29.85S
Southold         N/A     68  64  88 SW3         N/A
Montauk          N/A     69  62  78 SW7       29.86S
$$

NYZ052-065-067-240400-
Hudson Valley

CITY           SKY/WX    TMP DP  RH WIND       PRES   REMARKS
White Plains   PTCLDY    69  63  81 W3        29.86S
Larchmont Harb   N/A    N/A N/A N/A S8          N/A
Croton On Huds   N/A     70 N/A N/A E2          N/A
Somers           N/A     66  64  94 SW1         N/A
Brewster         N/A    N/A N/A N/A N2          N/A
Newburgh       PTCLDY    64  63  94 CALM      29.86
Montgomery     PTCLDY    59  58  96 CALM      29.85F
Otisville        N/A     59  57  94 CALM        N/A
Warwick          N/A     64  64 100 NW1         N/A
Suffern          N/A     66  63  88 SW1         N/A
Poughkeepsie   CLEAR     63  61  93 CALM      29.84S
Albany         PTCLDY    62  51  67 CALM      29.85S
$$

NJZ001-105-106-008-010-013-015-019>022-104-240400-
New Jersey

CITY           SKY/WX    TMP DP  RH WIND       PRES   REMARKS
Newark/Liberty MOCLDY    75  62  64 SW9       29.86S
Teterboro      PTCLDY    74  64  71 W8        29.84S
Caldwell       PTCLDY    73  63  70 VRB3      29.87S
Somerville     PTCLDY    65  64  97 CALM      29.85S
Linden         PTCLDY    73  61  65 CALM      29.87S
Perth Amboy      N/A     72 N/A N/A SW3         N/A
Sussex         PTCLDY    65  63  93 CALM      29.88S
Andover          N/A     65  63  93 CALM      29.89S
Trenton        PTCLDY    70  63  78 SW3       29.88R
Millville      PTCLDY    68  61  78 CALM      29.90R
Atlantic City  PTCLDY    70  62  76 S5        29.89F
Wrightstown    PTCLDY    68  64  88 SW6       29.87S
Toms River     PTCLDY    65  64  97 SW3       29.89S
Belmar         PTCLDY    69  65  86 SW3       29.89F
$$

PAZ047>061-062-071-240400-
Eastern Pennsylvania

CITY           SKY/WX    TMP DP  RH WIND       PRES   REMARKS
Philadelphia   MOCLDY    73  64  73 W6        29.89S
Allentown      PTCLDY    68  62  81 CALM      29.88S
Scranton       CLEAR     63  60  90 SE3       29.89S
$$

CTZ002-004>006-009-010-012-RIZ004-006-007-MAZ004-011-015-240400-
Southern New England

 In CT

CITY           SKY/WX    TMP DP  RH WIND       PRES   REMARKS
Bradley Intl   MOCLDY    72  58  61 W3        29.85R
Hartford       CLEAR     71  67  87 CALM      29.84R
Danbury        PTCLDY    66  63  90 CALM      29.87F
Wtrbury/Oxford PTCLDY    66  63  90 CALM      29.88S
Norwalk Harbor   N/A    N/A N/A N/A SW7         N/A
Bridgeport     PTCLDY    68  63  84 SW5       29.85S
Meriden        PTCLDY    66  62  87 CALM      29.85S
New Haven      PTCLDY    72  66  81 VRB5      29.84F
Chester        PTCLDY    66  66 100 VRB3      29.86S
Groton         CLEAR     68  66  93 W6        29.84F
Willimantic    PTCLDY    68  65  90 CALM      29.86R

 In RI

CITY           SKY/WX    TMP DP  RH WIND       PRES   REMARKS
Providence     MOCLDY    68  66  93 W8        29.84R
Block Island   CLEAR     59  58  96 W10       29.86S
Westerly       CLEAR     65  63  93 W3        29.84F

In MA

CITY           SKY/WX    TMP DP  RH WIND       PRES   REMARKS
Boston         PTCLDY    74  48  39 W12G22    29.80S
Worcester      CLEAR     65  49  56 W9        29.86S
Westfield      CLEAR     63  60  90 CALM      29.85R
Provincetown   CLEAR     59  59 100 SW9       29.82R
Nantucket      PTCLDY    59  59 100 W13       29.84F
$$

ANZ330-335-338-340-345-350-353-355-240400-
Coastal Marine Observations


STATION/POSITION TIME  SKY/WX   TEMP    WIND        PRES    VSBY  WAVE
                                AIR SEA DIR/SP/G                  HT/PER
                 (UTC)          (F)     (DEG/KT/KT) (MB)    (MI)  (FT/S)
NY Harb Entrance 0250            62 58  210/  6/  8 1011.3          2/ 5
20 S Fire Island 0250            61 57  220/  8/  8 1011.6          3/ 6
Great South Bay  NOT AVBL
23 SSW Montauk P NOT AVBL
15 E Barnegat Li 0256               60                N/A           3/ 5
Hudson Canyon    NOT AVBL
Kings Point      0230            71     150/  7/  8 1011.3
Execution Rocks  NOT AVBL
Western LI Sound NOT AVBL
Central LI Sound NOT AVBL
Robbins Reef     0230            75     260/  9/ 10 1011.3
$$


>>>>>>>>>>>>>>>>>>>>>>>>>>>> KEY <<<<<<<<<<<<<<<<<<<<<<<<<<<
>                                                          <
>     SKY/WX - Sky Condition/Present Weather               <
>     TMP    - Temperature in Fahrenheit                   <
>     DP     - Dew Point in Fahrenheit                     <
>     RH     - Relative Humidity in Percent                <
>     WIND   - Direction (from) and Speed in MPH           <
>     PRES   - Mean Sea Level Pressure (inches of Hg)      <
>     WCI    - Wind Chill Index                            <
>     VSB    - Visibility in Miles                         <
>     HX     - Heat Index                                  <
>     TC     - Temperature in Celsius                      <
>     VRB    - Variable Wind Direction                     <
>                                                          <
>>>>>>>>>>>>>>>>>>>>>>>>>>>> KEY <<<<<<<<<<<<<<<<<<<<<<<<<<<



 

View Past Reports for Upton, NY.

Products Courtesy of NOAA-NWS
NWS Information Parsing Script by Ken True at Saratoga Weather - Script by SE Lincoln Weather.